Location: Krakow
(50.0830°N, 19.9170°E)
Time: 17:05:57
(UTC+02:00)

Courier 1B - Pass Details

Date: 17 March 2026
Orbit: 962 x 1209 km, 28.3° (Epoch: 19 April)

Event Time Altitude Azimuth Distance (km) Brightness Sun altitude
Rises 09:00:39 0° 217° (SW) 3,964 10.7 27.3°
Reaches altitude 10° 09:07:33 10° 173° (S) 2,917 10.9 28.2°
Maximum altitude 09:07:43 10° 172° (S) 2,914 10.9 28.2°
Drops below altitude 10° 09:07:51 10° 170° (S) 2,912 10.9 28.2°
Sets 09:14:31 0° 125° (SE) 3,779 11.8 29.0°
